Location: *
(18.5200°S, 46.4500°E)
Time: 07:20:20
(UTC+00:00)

Cosmos 44 Rocket - Pass Details

Date: 19 July 2019
Orbit: 651 x 739 km, 65.1° (Epoch: 21 August)

Event Time Altitude Azimuth Distance (km) Brightness Sun altitude
Rises 15:15:03 0° 202° (SSW) 3,146 6.7 -9.7°
Reaches altitude 10° 15:17:25 10° 201° (SSW) 2,231 5.9 -10.3°
Maximum altitude 15:22:33 80° 113° (ESE) 751 3.3 -11.4°
Drops below altitude 10° 15:27:41 10° 26° (NNE) 2,236 5.8 -12.6°
Sets 15:30:03 0° 25° (NNE) 3,154 6.6 -13.1°
